Regional Weather Roundup
Issued by NWS Upton, NY

Current Version | Previous Version | Text Only | Print | Product List | Glossary On
Versions: 1 2 3 4 5 6 7 8 9 10 11 12 13 14 15 16 17 18 19 20 21 22 23 24 25 26 27 28 29 30 31 32 33 34 35 36 37 38 39 40 41 42 43 44 45 46 47 48 49 50
000
ASUS41 KOKX 271504
RWROKX

REGIONAL WEATHER ROUNDUP
NATIONAL WEATHER SERVICE NEW YORK NY
1100 AM EDT TUE SEP 27 2016

NOTE: "FAIR" INDICATES FEW OR NO CLOUDS BELOW 12,000 FEET WITH NO
SIGNIFICANT WEATHER AND/OR OBSTRUCTIONS TO VISIBILITY.

NYZ071-072-176-178-NJZ106-104-271600-
NEW YORK CITY METRO AREA

CITY           SKY/WX    TMP DP  RH WIND       PRES   REMARKS
Central Park   CLOUDY    67  60  78 NW6       29.98R
LaGuardia APRT CLOUDY    70  60  70 NW9       29.94S
Kennedy INTL   PTSUNNY   71  59  65 NW6       29.95S
Newark/Liberty CLOUDY    69  61  75 W8        29.95S
Bronx Bot Gard   N/A     68  59  73 W14       29.94F
Wall St Helipt PTSUNNY  N/A N/A N/A W6        29.95S
Teterboro      PTSUNNY   69  59  70 W7        29.94S
$$

NYZ177-179-078>081-271600-
LONG ISLAND NEW YORK

CITY           SKY/WX    TMP DP  RH WIND       PRES   REMARKS
Farmingdale    CLOUDY    68  62  81 VRB5      29.94S
MacArthur/ISP  CLOUDY    68  62  81 W7        29.93S
Shirley        CLOUDY    68  65  90 NW6       29.94S
Riverhead      NOT AVBL
Westhampton    CLOUDY    68  63  84 W6        29.95S
Southampton      N/A     66  64  94 W3        29.90S
Bridgehampton    N/A     68  64  88 CALM      29.78S
East Hampton   LGT RAIN  67  65  93 W3        29.93R
Montauk          N/A     68  64  87 W5        29.94R
$$

NYZ052-065-067-271600-
HUDSON VALLEY

CITY           SKY/WX    TMP DP  RH WIND       PRES   REMARKS
White Plains   CLOUDY    66  60  81 VRB7      29.94R
Newburgh       PTSUNNY   63  61  94 VRB6      29.96R
Montgomery     MOSUNNY   67  60  78 VRB5      29.94S
Poughkeepsie   CLOUDY    63  59  87 CALM      29.94R
Albany         MOSUNNY   64  56  75 W5        29.94R
$$

NJZ001-105-106-008-010-013-015-019>022-104-271600-
NEW JERSEY

CITY           SKY/WX    TMP DP  RH WIND       PRES   REMARKS
Newark/Liberty CLOUDY    69  61  75 W8        29.95S
Teterboro      PTSUNNY   69  59  70 W7        29.94S
Caldwell       PTSUNNY   67  59  75 VRB5      29.96R
Morristown     PTSUNNY   66  59  77 CALM      29.97R
Somerville     CLOUDY    67  60  78 VRB3      29.95S
Linden         NOT AVBL
Sussex         MOSUNNY   65  60  84 CALM      29.95F
Abdover          N/A     64  57  78 SW3       29.97R
Trenton        CLOUDY    67  59  75 NW8       29.96F
Millville      LGT RAIN  67  66  97 W5        29.98R
Atlantic City  CLOUDY    69  64  84 NW9       29.96F
Wrightstown    CLOUDY    68  63  83 VRB5      29.94S
Toms River     CLOUDY    68  64  87 NW8       29.96S
Belmar         CLOUDY    67  63  87 NW6       29.96F
$$

PAZ047>061-062-071-271600-
EASTERN PENNSYLVANIA

CITY           SKY/WX    TMP DP  RH WIND       PRES   REMARKS
Philadelphia   CLOUDY    68  59  73 NW7       29.97F
Allentown      PTSUNNY   66  56  70 CALM      29.97S
Scranton       SUNNY     64  54  69 VRB6      29.96F
$$

CTZ002-004>006-009-010-012-RIZ004-006-007-MAZ004-011-015-271600-
SOUTHERN NEW ENGLAND
 IN CT

CITY           SKY/WX    TMP DP  RH WIND       PRES   REMARKS
Bradley INTL   CLOUDY    68  58  70 CALM      29.93R
Hartford       PTSUNNY   68  60  75 W5        29.92S
Danbury        PTSUNNY   65  59  81 CALM      29.95S
Wtrbury/Oxford PTSUNNY   64  57  77 CALM      29.95F
Bridgeport     CLOUDY    69  61  75 NW6       29.93S
Meriden        PTSUNNY   68  60  75 NW5       29.93S
New Haven      CLOUDY    67  61  81 NW3       29.93S
Chester        PTSUNNY   66  61  82 CALM      29.93S
Groton         CLOUDY    69  64  84 W8        29.92R
Wilimantic     CLOUDY    67  63  87 N5        29.92S

 IN RI

CITY           SKY/WX    TMP DP  RH WIND       PRES   REMARKS
Providence     CLOUDY    68  63  84 NW6       29.91S
Block Island   CLOUDY    67  65  93 W6        29.92S
Westerly       CLOUDY    68  62  81 VRB3      29.92S
 IN MA

CITY           SKY/WX    TMP DP  RH WIND       PRES   REMARKS
Boston         PTSUNNY   67  62  84 NW7       29.90R
Worcester      CLOUDY    63  56  78 NW7       29.93R
Westfield      CLOUDY    64  61  90 CALM      29.92R FOG
Provincetown   LGT RAIN  65  64  97 W7        29.89R FOG
Nantucket      LGT RAIN  67  65  93 SW17      29.92F VSB 3/4
$$

ANZ330-335-338-340-345-350-353-355-271600-
COASTAL MARINE OBSERVATIONS


STATION/POSITION TIME  SKY/WX   TEMP    WIND        PRES    VSBY  WAVE
                                AIR SEA DIR/SP/G                  HT/PER
                 (UTC)          (F)     (DEG/KT/KT) (MB)    (MI)  (FT/S)
NY HARB ENTRANCE 1350            67 71  280/ 12/ 14 1013.8          3/ 6
20S FIRE ISLAND  1350            68 70  290/ 10/ 12 1013.4          5/ 6
GREAT SOUTH BAY  1415            67 69  290/  8/ 10   N/A
23 SSW MONTAUK P 1350            67 68  260/ 10/ 12 1013.7          5/ 6
15 E BARNEGAT LI 1430               71                N/A           5/ 6
HUDSON CANYON    1350            70 69              1014.4          6/ 7
KINGS POINT      1430            67 72              1013.7
EXECUTION ROCKS  1445            68     290/  6/ 10   N/A
CENTRAL LI SOUND 1430            68 72  290/ 10/ 12   N/A           2/ 4
EASTERN LI SOUND NOT AVBL
ROBBINS REEF     1430            66     280/  8/ 10 1014.4
$$


>>>>>>>>>>>>>>>>>>>>>>>>>>>> KEY <<<<<<<<<<<<<<<<<<<<<<<<<<<
>                                                          <
>     SKY/WX - Sky Condition/Present Weather               <
>     TMP    - Temperature in Fahrenheit                   <
>     DP     - Dew Point in Fahrenheit                     <
>     RH     - Relative Humidity in Percent                <
>     WIND   - Direction (from) and Speed in MPH           <
>     PRES   - Mean Sea Level Pressure (inches of Hg)      <
>     WCI    - Wind Chill Index                            <
>     VSB    - VISIBILITY IN MILES                         <
>     HX     - HEAT INDEX                                  <
>     TC     - TEMPERATURE IN CELSIUS                      <
>     VRB    - VARIABLE WIND DIRECTION                     <
>                                                          <
>>>>>>>>>>>>>>>>>>>>>>>>>>>> KEY <<<<<<<<<<<<<<<<<<<<<<<<<<<




USA.gov is the U.S. government's official web portal to all federal, state and local government web resources and services.